DW7793 Weather Reports


time (UTC)temp
C
wind
direction
speed
KPH
gust
KPH
rain 1hr
cm
rain 24hr
cm
rain mn
cm
humidity
%
barometer
mb
20260504081559 10 260 0.0 0.0 0.00 0.03 0.03 79 1015.1
20260504080106 10 260 0.0 0.0 0.00 0.03 0.03 80 1015.3
20260504070108 10 259 0.0 0.0 0.00 0.03 0.03 76 1015.6
20260504044632 10 128 0.0 0.0 0.00 0.03 0.03 76 1015.9
20260504043040 10 121 0.0 0.0 0.00 0.03 0.03 77 1016.4
20260504041511 10 129 0.0 0.0 0.00 0.03 0.03 76 1016.5
20260504040051 11 274 0.0 0.0 0.00 0.03 0.03 70 1016.6
20260504034622 11 274 0.0 0.0 0.00 0.03 0.03 70 1016.9
20260504033101 11 293 0.0 0.0 0.00 0.03 0.03 71 1016.8
20260504031625 11 293 0.0 0.0 0.00 0.03 0.03 71 1017.0
20260504030030 11 299 0.0 0.0 0.00 0.03 0.03 66 1016.9
20260504024617 12 299 0.0 0.0 0.00 0.03 0.03 65 1016.9
20260504023128 13 299 0.0 0.0 0.00 0.03 0.03 61 1016.9
20260504021536 13 299 0.0 0.0 0.00 0.03 0.03 59 1016.8
20260504020023 13 299 0.0 0.0 0.00 0.03 0.03 58 1016.5
20260504014621 14 284 0.0 0.0 0.00 0.03 0.03 58 1016.2
20260504013009 14 304 0.0 0.0 0.00 0.03 0.03 59 1016.0
20260504011552 14 295 0.0 0.0 0.00 0.03 0.03 58 1016.1
20260504010100 15 295 0.0 0.0 0.00 0.03 0.03 55 1016.3
20260504004506 16 295 0.0 0.0 0.00 0.03 0.03 52 1016.4
20260504003100 16 295 0.0 0.0 0.00 0.03 0.03 51 1016.2
20260504001627 17 237 0.0 0.0 0.00 0.03 0.03 51 1016.3
20260504000115 18 273 0.0 0.0 0.00 0.03 0.03 48 1016.4
20260503234637 18 293 0.0 0.0 0.00 0.03 0.03 46 1016.7
20260503233034 18 53 0.0 0.0 0.00 0.03 0.03 45 1016.8
20260503231612 19 23 0.0 0.0 0.00 0.03 0.03 42 1016.9
20260503230006 19 349 0.0 0.0 0.00 0.03 0.03 42 1016.9
20260503224501 20 65 0.0 3.2 0.00 0.03 0.03 44 1017.0
20260503223038 20 79 0.0 0.0 0.00 0.03 0.03 44 1017.3
20260503221626 21 143 0.0 4.8 0.00 0.03 0.03 40 1017.5
20260503220038 21 263 0.0 0.0 0.00 0.03 0.03 38 1017.7
20260503214625 20 130 0.0 0.0 0.00 0.03 0.03 37 1017.8
20260503213030 21 50 0.0 0.0 0.00 0.03 0.03 38 1018.2
20260503211632 20 271 0.0 1.6 0.00 0.03 0.03 39 1018.3
20260503210105 21 349 0.0 1.6 0.00 0.03 0.03 38 1018.7
20260503204618 21 298 0.0 0.0 0.00 0.03 0.03 39 1018.7
20260503203008 21 300 0.0 4.8 0.00 0.03 0.03 37 1018.9
20260503201522 20 323 0.0 6.4 0.00 0.03 0.03 41 1019.2
20260503200021 20 293 0.0 1.6 0.00 0.03 0.03 40 1019.5
20260503194556 20 266 0.0 1.6 0.00 0.03 0.03 38 1019.9
20260503193113 20 128 0.0 1.6 0.00 0.03 0.03 43 1020.2
20260503191541 20 328 0.0 0.0 0.00 0.03 0.03 40 1020.4
20260503190110 18 147 0.0 8.0 0.00 0.03 0.03 39 1020.5
20260503184617 19 327 0.0 1.6 0.00 0.03 0.03 39 1020.7
20260503183013 20 148 0.0 0.0 0.00 0.03 0.03 44 1021.0
20260503181614 19 30 0.0 0.0 0.00 0.03 0.03 43 1021.0
20260503180129 19 313 0.0 1.6 0.00 0.03 0.03 40 1021.2
20260503174512 18 359 0.0 0.0 0.00 0.03 0.03 45 1021.4
20260503173112 17 15 0.0 0.0 0.00 0.03 0.03 39 1021.6
20260503171502 17 133 0.0 0.0 0.00 0.03 0.03 43 1021.8
20260503160123 15 130 0.0 6.4 0.00 0.03 0.03 45 1022.5
20260503130125 7 145 0.0 0.0 0.00 0.00 0.00 96 1022.8
20260503110122 2 136 0.0 0.0 0.00 0.00 0.00 97 1021.7
20260503090123 3 136 0.0 0.0 0.00 0.00 0.00 96 1021.3